Flag for Guadeloupe Weather past 2 weeks in Pointe-à-Pitre, Guadeloupe

Now
70 °F

Clear.


Feels Like: 70 °F
Forecast: 68 / 83 °F
Wind: No wind

Location: Le Raizet - Guadeloupe

Current Time: Feb 1, 2015 at 5:33:51 AM

Latest Report: Feb 1, 2015 at 5:00 AM


Visibility: N/A

Pressure: 30.01 "Hg

Humidity: 94%

Dew point: 68 °F

Location of Pointe-à-PitreLocation

Historic Weather in Pointe-à-Pitre — Graph

°F

Pointe-à-Pitre temperature yesterday

Maximum temperature yesterday: 86 °F (at 12:00 PM)
Minimum temperature yesterday: 66 °F (at 3:30 AM)
Average temperature yesterday: 75 °F

Past Weeks' High & Low Weather Summary

 TemperatureHumidityPressure
High86 °F (Jan 22, 12:00 PM)100% (Jan 17, 4:30 AM)30.07 "Hg (Jan 17, 4:30 AM)
Low66 °F (Jan 20, 4:30 AM)43% (Jan 25, 2:00 PM)29.92 "Hg (Jan 19, 2:30 PM)
Average76 °F75%29.99 "Hg
* Reported Jan 17 4:00 AM — Feb 1 4:30 AM, Pointe-à-Pitre, Weather by CustomWeather, © 2014

Note: Actual official high and low records may vary slightly from our data, if they occured in-between our weather recording intervals... More about our weather records

Advertising

Pointe-à-Pitre weather history for previous 24 hours

 ConditionsComfort  
Time TempWeatherWind HumidityBarometerVisibility
4:30 AM
Feb 1
70 °FPassing clouds.No wind94%30.01 "HgN/A
4:00 AM70 °FPassing clouds.3 mph100%29.98 "HgN/A
3:30 AM70 °FPartly cloudy.1 mph94%30.01 "HgN/A
3:00 AM72 °FPassing clouds.3 mph94%30.01 "HgN/A
2:30 AM72 °FPartly cloudy.No wind94%30.01 "HgN/A
2:00 AM70 °FPassing clouds.No wind94%30.01 "HgN/A
1:30 AM70 °FPartly cloudy.3 mph94%30.01 "HgN/A
1:00 AM70 °FMild.1 mph94%30.01 "HgN/A
12:30 AM70 °FMild.No wind94%30.04 "HgN/A
12:00 AM72 °FClear.No wind88%30.04 "HgN/A
11:30 PM
Jan 31
72 °FClear.No wind88%30.04 "HgN/A
11:00 PM72 °FClear.1 mph88%30.04 "HgN/A
10:30 PM72 °FClear.No wind88%30.04 "HgN/A
10:00 PM73 °FClear.No wind83%30.04 "HgN/A
9:30 PM75 °FClear.3 mph78%30.01 "HgN/A
9:00 PM73 °FClear.2 mph83%30.01 "HgN/A
8:30 PM75 °FClear.1 mph78%30.01 "HgN/A
8:08 PM77 °FPassing clouds.3 mph74%30.01 "HgN/A
7:00 PM77 °FPassing clouds.5 mph74%29.98 "HgN/A
6:00 PM79 °FScattered clouds.7 mph70%29.95 "HgN/A
5:30 PM81 °FScattered clouds.3 mph66%29.95 "HgN/A
4:30 PM79 °FPartly sunny.5 mph70%29.95 "HgN/A
4:00 PM79 °FPartly sunny.6 mph70%29.95 "HgN/A
3:39 PM81 °FPartly sunny.3 mph66%29.95 "HgN/A
3:08 PM81 °FPartly sunny.9 mph66%29.95 "HgN/A
2:34 PM84 °FPartly sunny.10 mph58%29.95 "HgN/A
2:00 PM84 °FPartly sunny.3 mph58%29.98 "HgN/A
1:30 PM84 °FPartly sunny.5 mph58%29.98 "HgN/A
1:00 PM84 °FPartly sunny.8 mph58%29.98 "HgN/A
12:30 PM86 °FPartly sunny.12 mph55%29.98 "HgN/A
12:00 PM86 °FPartly sunny.9 mph59%29.98 "HgN/A
11:30 AM84 °FPartly sunny.8 mph58%30.01 "HgN/A
11:00 AM84 °FPartly sunny.1 mph58%30.01 "HgN/A
10:30 AM82 °FPartly sunny.3 mph62%30.01 "HgN/A
10:00 AM82 °FPartly sunny.5 mph62%30.01 "HgN/A
9:30 AM79 °FScattered clouds.3 mph70%30.04 "HgN/A
9:00 AM79 °FPassing clouds.No wind70%30.01 "HgN/A
8:30 AM75 °FPassing clouds.No wind78%30.01 "HgN/A
8:05 AM73 °FPassing clouds.No wind89%30.01 "HgN/A
7:34 AM72 °FPassing clouds.No wind94%29.98 "HgN/A
7:00 AM66 °FClear.2 mph100%29.98 "HgN/A
6:30 AM66 °FClear.2 mph94%29.98 "HgN/A
6:00 AM66 °FClear.2 mph94%29.95 "HgN/A
5:30 AM66 °FClear.No wind94%29.95 "HgN/A
5:00 AM66 °FClear.2 mph100%29.95 "HgN/A
Weather by CustomWeather, © 2014

See weather overviewHow to use our weather pages